[[{"header":{"parameterUnit":"m.s-1","parameterCategory":1,"la1":30.2991,"la2":30.254,"lo1":-89.0895,"lo2":-89.0444,"dy":0.0017,"dx":0.0017,"nx":28,"ny":28,"refTime":"2023-08-28T03:00:00:Z","depth":0,"parameterNumber":2,"parameterNumberName":"U-component_of_WINDS"},"data":[0,0,0,0,0,0,0,0,0,0,0,0,0,0,0,0,0,0,0,0,0,0,0,0,0,0,0,0,0,0,0,0,0,0,0,0,0,0,0,0,0,0,0,0,0,0,0,0,0,0,0,0,0,0,0,0,0,0,-1.1201,-1.12,0,-1.1125,-1.1124,-1.1123,-1.1091,-1.1091,-1.1091,-1.1091,-1.1009,-1.1007,-1.1005,0,0,0,0,0,0,0,0,0,0,0,0,0,-1.1313,-1.1311,-1.1201,-1.12,-1.1199,-1.1125,-1.1124,-1.1123,-1.1091,-1.1091,-1.1091,-1.1091,-1.101,-1.1007,-1.1004,0,0,0,0,0,0,0,0,0,0,0,0,0,-1.1254,-1.1311,-1.1201,-1.1174,-1.1171,-1.1125,-1.1124,-1.1123,-1.109,-1.1091,-1.1091,-1.1091,-1.1011,-1.1007,-1.1004,-1.0979,0,0,-1.0994,-1.0992,0,0,0,0,0,0,0,0,-1.1257,-1.125,-1.1179,-1.1176,-1.1172,-1.1118,-1.1134,-1.1074,-1.109,-1.1121,-1.1091,-1.1091,-1.1045,-1.1039,-1.1024,-1.0975,-1.0971,-1.0993,-1.0991,-1.099,-1.0989,0,0,0,0,0,0,0,-1.1261,-1.1253,-1.1171,-1.1178,-1.1174,-1.1164,-1.1156,-1.1122,-1.1082,-1.1118,-1.1116,-1.1107,-1.1043,-1.1027,-1.1022,-1.097,-1.0993,-1.099,-1.0988,-1.0987,-1.0895,-1.0895,0,0,0,0,0,0,-1.127,-1.1256,-1.1173,-1.1169,-1.1216,-1.1162,-1.1153,-1.1135,-1.1083,-1.1075,-1.1107,-1.1106,-1.1033,-1.1026,-1.1019,-1.0985,-1.099,-1.0986,-1.0984,-1.0896,-1.0895,-1.0895,0,0,0,0,0,0,-1.1273,-1.1263,-1.1176,-1.1212,-1.12,-1.116,-1.114,-1.1133,-1.1117,-1.1075,-1.1067,-1.1099,-1.1033,-1.1023,-1.0989,-1.0981,-1.0985,-1.0982,-1.0896,-1.0896,-1.0895,-1.0917,0,0,0,0,0,0,-1.1276,-1.1264,-1.1256,-1.1212,-1.1198,-1.1149,-1.114,-1.1132,-1.1112,-1.111,-1.1065,-1.1057,-1.1032,-1.0994,-1.0986,-1.0977,-1.0979,-1.0897,-1.0896,-1.0895,-1.0917,-1.0918,-1.0918,0,0,0,0,0,-1.128,-1.1264,-1.1255,-1.1245,-1.1186,-1.1149,-1.1141,-1.1114,-1.1112,-1.1102,-1.1074,-1.1059,-1.0984,-1.0991,-1.0981,-1.0971,-1.0897,-1.0896,-1.0895,-1.0917,-1.0918,-1.0918,0,0,0,0,0,0,-1.1307,-1.1258,-1.1248,-1.1217,-1.1188,-1.1144,-1.113,-1.1116,-1.1085,-1.1084,-1.105,-1.104,-1.1009,-1.0986,-1.0995,-1.0943,-1.0939,-1.0936,-1.0959,-1.0959,-1.096,-1.0965,-1.0976,0,0,0,0,0,-1.1309,-1.1284,-1.1243,-1.1219,-1.1205,-1.117,-1.1153,-1.1135,-1.1102,-1.1089,-1.1059,-1.1027,-1.0996,-1.0976,-1.0946,-1.0914,-1.0903,-1.0902,-1.0903,-1.0903,-1.0901,-1.0881,-1.088,-1.0892,-1.0892,-1.0892,0,0,-1.1314,-1.1284,-1.127,-1.1224,-1.1199,-1.1173,-1.116,-1.1133,-1.1112,-1.1085,-1.105,-1.1027,-1.0989,-1.0956,-1.0939,-1.0936,-1.0895,-1.0902,-1.0903,-1.09,-1.088,-1.0879,-1.0878,-1.0892,-1.0892,-1.0892,0,0,-1.1308,-1.1284,-1.1261,-1.1237,-1.12,-1.1176,-1.1171,-1.1129,-1.1113,-1.1078,-1.1057,-1.1031,-1.0979,-1.0953,-1.0932,-1.0916,-1.0901,-1.0907,-1.091,-1.0891,-1.089,-1.0889,-1.0882,-1.088,-1.0905,-1.0905,-1.0905,0,-1.1318,-1.1279,-1.1252,-1.1225,-1.1205,-1.118,-1.1156,-1.1133,-1.1088,-1.1073,-1.1071,-1.1005,-1.0977,-1.0937,-1.0933,-1.0917,-1.0909,-1.0912,-1.0892,-1.0891,-1.089,-1.0883,-1.088,-1.0906,-1.0906,-1.0906,-1.0906,0,-1.1292,-1.1265,-1.1251,-1.1209,-1.1187,-1.1162,-1.113,-1.1111,-1.1094,-1.1071,-1.1035,-1.1001,-1.0963,-1.0952,-1.0935,-1.0909,-1.0908,-1.0899,-1.0894,-1.089,-1.0883,-1.088,-1.0908,-1.0907,-1.0907,-1.0907,0,0,-1.1301,-1.1244,-1.1239,-1.1219,-1.1176,-1.1154,-1.1127,-1.1091,-1.1075,-1.1044,-1.1019,-1.0976,-1.0968,-1.0945,-1.0924,-1.0908,-1.0896,-1.0901,-1.09,-1.0901,-1.0863,-1.0869,-1.0867,-1.0886,-1.0885,-1.0885,-1.0866,0,-1.1289,-1.1242,-1.1216,-1.1179,-1.1153,-1.1129,-1.1105,-1.1075,-1.1052,-1.1026,-1.1,-1.0969,-1.0961,-1.0947,-1.093,-1.0901,-1.0888,-1.0902,-1.0861,-1.086,-1.0871,-1.0863,-1.087,-1.0854,-1.0863,-1.0863,-1.0862,0,-1.1269,-1.1239,-1.12,-1.1159,-1.1147,-1.1127,-1.1091,-1.1066,-1.1031,-1.1016,-1.099,-1.097,-1.0939,-1.0937,-1.0894,-1.0904,-1.0886,-1.0869,-1.0868,-1.0862,-1.0861,-1.0857,-1.0848,-1.0846,-1.0858,-1.0858,-1.0859,0,-1.1278,-1.1228,-1.1198,-1.1182,-1.1134,-1.112,-1.1099,-1.1064,-1.1044,-1.1012,-1.0998,-1.0963,-1.0943,-1.0915,-1.0886,-1.0887,-1.0845,-1.084,-1.0829,-1.083,-1.0821,-1.0822,-1.0809,-1.0811,-1.0811,-1.0811,-1.0811,0,-1.1267,-1.1244,-1.1202,-1.1183,-1.1156,-1.1126,-1.1099,-1.1076,-1.1045,-1.102,-1.0997,-1.0974,-1.0936,-1.0908,-1.0885,-1.0851,-1.0843,-1.0828,-1.0822,-1.083,-1.0832,-1.0817,-1.0817,-1.081,-1.081,-1.0811,-1.0811,0,-1.1273,-1.1244,-1.1209,-1.1167,-1.1155,-1.1137,-1.11,-1.108,-1.1056,-1.1025,-1.1015,-1.0977,-1.0943,-1.0911,-1.0865,-1.0849,-1.0815,-1.0807,-1.0827,-1.0823,-1.0814,-1.0815,-1.079,-1.0785,-1.0792,-1.0792,-1.0792,0,-1.1268,-1.1249,-1.1205,-1.1187,-1.1167,-1.1139,-1.1118,-1.1087,-1.1066,-1.1024,-1.1009,-1.0973,-1.0943,-1.0888,-1.0856,-1.082,-1.0811,-1.0804,-1.0805,-1.0813,-1.0809,-1.081,-1.0808,-1.0805,-1.0805,-1.0805,-1.0805,0,-1.1261,-1.1247,-1.1219,-1.1185,-1.1161,-1.1133,-1.1104,-1.109,-1.1053,-1.1031,-1.0996,-1.0972,-1.0925,-1.0889,-1.085,-1.0826,-1.0809,-1.0805,-1.08,-1.0808,-1.0819,-1.0812,-1.0827,-1.0806,-1.0805,-1.0805,-1.0805,-1.0805,-1.126,-1.1242,-1.1208,-1.1177,-1.1152,-1.1125,-1.1104,-1.1077,-1.1048,-1.1008,-1.0992,-1.0956,-1.092,-1.0865,-1.0842,-1.0812,-1.0808,-1.0802,-1.08,-1.0799,-1.08,-1.0825,-1.0805,-1.0805,-1.0805,-1.0804,-1.0804,0,-1.1251,-1.1228,-1.1199,-1.116,-1.1135,-1.1122,-1.1089,-1.1068,-1.1037,-1.1006,-1.0977,-1.0936,-1.09,-1.0865,-1.0827,-1.081,-1.0801,-1.0801,-1.0802,-1.0796,-1.0806,-1.0813,-1.0809,-1.0809,-1.0809,-1.0809,-1.0809,-1.0809,-1.1243,-1.1212,-1.1195,-1.115,-1.1126,-1.1092,-1.1074,-1.1048,-1.1023,-1.0979,-1.095,-1.0927,-1.0893,-1.0853,-1.082,-1.081,-1.0797,-1.0799,-1.0787,-1.0796,-1.0796,-1.0796,-1.0802,-1.0796,-1.0796,-1.0779,-1.0779,-1.0779]},{"header":{"parameterUnit":"m.s-1","parameterCategory":1,"la1":30.2991,"la2":30.254,"lo1":-89.0895,"lo2":-89.0444,"dy":0.0017,"dx":0.0017,"nx":28,"ny":28,"refTime":"2023-08-28T03:00:00:Z","depth":0,"parameterNumber":3,"parameterNumberName":"V-component_of_WINDS"},"data":[0,0,0,0,0,0,0,0,0,0,0,0,0,0,0,0,0,0,0,0,0,0,0,0,0,0,0,0,0,0,0,0,0,0,0,0,0,0,0,0,0,0,0,0,0,0,0,0,0,0,0,0,0,0,0,0,0,0,0.9698,0.9699,0,0.9763,0.9764,0.9765,0.9783,0.9783,0.9783,0.9782,0.985,0.9852,0.9854,0,0,0,0,0,0,0,0,0,0,0,0,0,0.9591,0.9593,0.9698,0.9699,0.97,0.9763,0.9764,0.9765,0.9783,0.9783,0.9783,0.9782,0.9849,0.9852,0.9854,0,0,0,0,0,0,0,0,0,0,0,0,0,0.9645,0.9593,0.9698,0.9717,0.9719,0.9763,0.9764,0.9765,0.9783,0.9783,0.9782,0.9782,0.9848,0.9851,0.9855,0.9885,0,0,0.9864,0.9866,0,0,0,0,0,0,0,0,0.9642,0.9649,0.9713,0.9715,0.9718,0.9765,0.9751,0.9805,0.9784,0.9759,0.9782,0.9782,0.9822,0.9827,0.9841,0.9888,0.9891,0.9865,0.9867,0.9868,0.9869,0,0,0,0,0,0,0,0.9638,0.9646,0.9724,0.9714,0.9717,0.9722,0.9729,0.9761,0.9793,0.9761,0.9763,0.977,0.9823,0.9838,0.9842,0.9892,0.9864,0.9867,0.9869,0.9871,0.997,0.997,0,0,0,0,0,0,0.9631,0.9643,0.9722,0.9726,0.9678,0.9724,0.9732,0.975,0.9792,0.9798,0.977,0.9771,0.9832,0.9839,0.9845,0.9884,0.9868,0.9871,0.9873,0.9969,0.997,0.997,0,0,0,0,0,0,0.9629,0.9638,0.9719,0.9685,0.9696,0.9727,0.9747,0.9752,0.9766,0.9799,0.9805,0.9779,0.9832,0.984,0.9875,0.9887,0.9872,0.9875,0.9968,0.9969,0.997,0.9963,0,0,0,0,0,0,0.9625,0.9637,0.9648,0.9685,0.9697,0.9748,0.9747,0.9753,0.9772,0.9772,0.9809,0.9815,0.9832,0.987,0.9878,0.9891,0.9878,0.9967,0.9968,0.997,0.9962,0.9964,0.9965,0,0,0,0,0,0.9622,0.9644,0.9649,0.9658,0.9712,0.9749,0.9756,0.9775,0.9772,0.9785,0.9806,0.9814,0.9884,0.9874,0.9883,0.9897,0.9966,0.9968,0.997,0.9962,0.9964,0.9965,0,0,0,0,0,0,0.9608,0.9649,0.9655,0.969,0.9715,0.9752,0.9768,0.9776,0.9804,0.9803,0.9827,0.9835,0.9868,0.9886,0.9874,0.9929,0.9926,0.9929,0.9917,0.9918,0.992,0.9915,0.988,0,0,0,0,0,0.9609,0.9634,0.9669,0.9696,0.9709,0.9736,0.9752,0.9765,0.9793,0.9804,0.9828,0.9855,0.9884,0.9902,0.993,0.9965,0.9974,0.9979,0.998,0.9981,0.9984,1.0006,1.0009,0.9976,0.9976,0.9976,0,0,0.9611,0.9637,0.9651,0.9694,0.9716,0.9742,0.9745,0.9773,0.9793,0.9809,0.9843,0.9862,0.9894,0.9929,0.9946,0.9945,0.9995,0.9983,0.9984,0.9986,1.0007,1.0011,1.0013,0.9977,0.9977,0.9976,0,0,0.9629,0.965,0.9676,0.9698,0.973,0.9748,0.9755,0.979,0.9803,0.9838,0.985,0.9875,0.9923,0.9946,0.9963,0.9991,0.9999,0.9999,1.0006,1.0027,1.0029,1.0032,1.0042,1.0046,1.0002,1.0002,1.0002,0,0.9628,0.9668,0.9688,0.9716,0.9735,0.975,0.9776,0.9797,0.9837,0.985,0.9848,0.991,0.9932,0.9973,0.998,0.9994,1.0002,0.9995,1.0027,1.003,1.0032,1.0043,1.0047,1.0002,1.0002,1.0002,1.0002,0,0.9665,0.9693,0.971,0.9749,0.9769,0.9796,0.9821,0.984,0.9851,0.9869,0.9906,0.9933,0.9967,0.9978,0.9989,1.0022,1.002,1.0022,1.0019,1.0035,1.0045,1.005,1.0002,1.0002,1.0002,1.0002,0,0,0.9676,0.9726,0.9732,0.975,0.9788,0.981,0.9838,0.9872,0.9888,0.9915,0.994,0.9981,0.9983,1.0003,1.0017,1.0035,1.0057,1.0036,1.0037,1.0039,1.0095,1.0094,1.0098,1.0062,1.0063,1.0064,1.0093,0,0.9699,0.975,0.9769,0.9811,0.9837,0.9853,0.9877,0.9903,0.9921,0.9947,0.9967,0.9996,0.9997,1.001,1.0028,1.005,1.0068,1.0048,1.0086,1.0087,1.0079,1.0104,1.0102,1.0129,1.0097,1.0098,1.0098,0,0.9733,0.9761,0.9805,0.9841,0.9853,0.9875,0.9908,0.9932,0.9962,0.9974,0.9997,1.001,1.0041,1.0035,1.0079,1.0064,1.0081,1.0095,1.0096,1.0101,1.0094,1.011,1.0137,1.0142,1.0105,1.0104,1.0104,0,0.9738,0.9787,0.982,0.9835,0.9877,0.9892,0.991,0.994,0.9959,0.9988,1.0001,1.0033,1.0051,1.0076,1.0097,1.0091,1.0139,1.0135,1.0151,1.015,1.0161,1.016,1.0192,1.017,1.017,1.017,1.017,0,0.9762,0.9789,0.9823,0.9843,0.9874,0.9896,0.9926,0.9945,0.9972,0.9997,1.0012,1.0035,1.0062,1.0089,1.0106,1.014,1.0147,1.0159,1.0163,1.0158,1.0157,1.017,1.0169,1.0171,1.0171,1.017,1.017,0,0.9773,0.9796,0.9834,0.9871,0.9881,0.9902,0.9934,0.9954,0.9973,1.0005,1.0014,1.0044,1.0076,1.01,1.0142,1.0154,1.019,1.0194,1.018,1.0183,1.0197,1.0196,1.024,1.0247,1.0219,1.0219,1.0219,0,0.9788,0.9809,0.9848,0.9866,0.9884,0.9912,0.9932,0.9955,0.9976,1.0012,1.0029,1.0063,1.0091,1.0142,1.0168,1.0201,1.0206,1.0219,1.0211,1.0206,1.0208,1.0207,1.021,1.0221,1.0221,1.0221,1.0221,0,0.9811,0.9822,0.985,0.9883,0.9906,0.9933,0.996,0.9974,1.0002,1.0024,1.0057,1.0079,1.0122,1.0156,1.0191,1.0211,1.0221,1.0223,1.0229,1.0224,1.0216,1.0222,1.0184,1.0222,1.0222,1.0222,1.0222,1.0222,0.9825,0.9845,0.9876,0.9907,0.993,0.9955,0.9977,0.9999,1.0027,1.0064,1.0076,1.0111,1.0142,1.0191,1.021,1.0239,1.0238,1.0246,1.0248,1.025,1.0251,1.021,1.0245,1.0245,1.0245,1.0245,1.0245,0,0.9851,0.9872,0.99,0.9938,0.9962,0.9969,1.0,1.002,1.0051,1.0079,1.0107,1.0146,1.0179,1.0207,1.0242,1.0259,1.0265,1.0267,1.0267,1.0271,1.0248,1.024,1.0262,1.0262,1.0262,1.0262,1.0262,1.0262,0.9867,0.9901,0.9916,0.9962,0.9983,1.0018,1.0035,1.0058,1.0081,1.0124,1.0151,1.017,1.0198,1.0235,1.0266,1.0274,1.0286,1.0288,1.0297,1.0275,1.0273,1.0271,1.0264,1.029,1.029,1.0318,1.0318,1.0318]}]]